GW6303 Weather Reports


time (UTC)temp
C
wind
direction
speed
KPH
gust
KPH
rain 1hr
cm
rain 24hr
cm
rain mn
cm
humidity
%
barometer
mb
20260510142555 16 183 0.0 0.0 0.00 0.08 0.00 87 1015.0
20260510142052 16 203 0.0 1.6 0.00 0.08 0.00 89 1014.9
20260510141552 16 191 0.0 1.6 0.00 0.08 0.00 89 1014.9
20260510141050 15 215 0.0 1.6 0.00 0.08 0.00 92 1015.0
20260510140548 15 210 0.0 1.6 0.00 0.08 0.00 93 1015.1
20260510140049 14 211 0.0 3.2 0.00 0.08 0.00 95 1015.0
20260510135546 14 196 0.0 3.2 0.00 0.08 0.00 96 1015.0
20260510135045 13 197 0.0 1.6 0.00 0.08 0.00 97 1014.9
20260510134551 13 197 0.0 3.2 0.00 0.08 0.00 97 1014.9
20260510134041 13 191 0.0 3.2 0.00 0.08 0.00 98 1014.9
20260510133544 13 205 0.0 0.0 0.00 0.08 0.00 98 1015.0
20260510133040 13 194 0.0 0.0 0.00 0.08 0.00 98 1015.0
20260510132539 12 197 0.0 1.6 0.00 0.08 0.00 98 1014.9
20260510132038 12 190 0.0 0.0 0.00 0.08 0.00 98 1014.9
20260510131537 12 190 0.0 1.6 0.00 0.08 0.00 98 1014.9
20260510131036 12 191 0.0 1.6 0.00 0.08 0.00 98 1014.9
20260510130535 12 191 0.0 1.6 0.00 0.08 0.00 98 1015.1
20260510130035 11 187 0.0 1.6 0.00 0.08 0.00 97 1015.2
20260510125533 11 188 0.0 0.0 0.00 0.08 0.00 98 1015.3
20260510125035 11 196 0.0 0.0 0.00 0.08 0.00 98 1015.2
20260510124537 11 196 0.0 0.0 0.00 0.08 0.00 98 1015.2
20260510124033 11 196 0.0 0.0 0.00 0.08 0.00 98 1015.1
20260510123531 11 189 0.0 0.0 0.00 0.08 0.00 98 1015.2
20260510123033 11 186 0.0 0.0 0.00 0.08 0.00 98 1014.9
20260510122529 11 185 0.0 0.0 0.00 0.08 0.00 98 1014.9
20260510122030 11 186 0.0 0.0 0.00 0.08 0.00 98 1014.6
20260510121527 11 188 0.0 0.0 0.00 0.08 0.00 98 1014.6
20260510121029 11 171 0.0 0.0 0.00 0.08 0.00 98 1014.6
20260510120526 11 191 0.0 0.0 0.00 0.08 0.00 98 1014.5
20260510120028 10 195 0.0 1.6 0.00 0.08 0.00 98 1014.4
20260510115525 10 195 0.0 1.6 0.00 0.08 0.00 98 1014.4
20260510115028 10 192 0.0 0.0 0.00 0.08 0.00 98 1014.1
20260510114527 10 192 0.0 0.0 0.00 0.08 0.00 98 1014.3
20260510114025 10 198 0.0 0.0 0.00 0.08 0.00 98 1014.4
20260510113523 10 201 0.0 1.6 0.00 0.08 0.00 98 1014.1
20260510113123 10 198 0.0 1.6 0.00 0.08 0.00 97 1014.0
20260510112524 10 205 0.0 0.0 0.00 0.08 0.00 98 1014.1
20260510112023 10 203 0.0 0.0 0.00 0.08 0.00 98 1014.1
20260510111522 10 205 0.0 0.0 0.00 0.08 0.00 98 1014.3
20260510111021 10 205 0.0 0.0 0.00 0.08 0.00 98 1014.2
20260510110524 10 205 0.0 0.0 0.00 0.08 0.00 98 1014.1
20260510110028 10 205 0.0 0.0 0.00 0.08 0.00 98 1014.1
20260510105520 10 205 0.0 0.0 0.00 0.08 0.00 98 1014.0
20260510105019 10 205 0.0 0.0 0.00 0.08 0.00 97 1014.0
20260510104518 10 205 0.0 0.0 0.00 0.08 0.00 98 1013.9
20260510104017 10 205 0.0 0.0 0.00 0.08 0.00 98 1013.9
20260510103517 10 205 0.0 0.0 0.00 0.08 0.00 97 1013.7
20260510103020 10 201 0.0 0.0 0.00 0.08 0.00 97 1013.5
20260510102519 10 201 0.0 0.0 0.00 0.08 0.00 97 1013.7
20260510102017 10 201 0.0 0.0 0.00 0.08 0.00 97 1013.5
20260510101516 10 201 0.0 0.0 0.00 0.08 0.00 97 1013.5
20260510101016 10 201 0.0 0.0 0.00 0.08 0.00 97 1013.4
20260510100516 10 199 0.0 0.0 0.00 0.08 0.00 97 1013.6
20260510100018 10 200 0.0 0.0 0.00 0.08 0.00 97 1013.5
20260510095515 10 200 0.0 0.0 0.00 0.08 0.00 97 1013.5
20260510095014 10 197 0.0 0.0 0.00 0.08 0.00 97 1013.4
20260510094517 10 197 0.0 0.0 0.00 0.08 0.00 97 1013.6
20260510094014 10 191 0.0 0.0 0.00 0.08 0.00 97 1013.3
20260510093516 10 191 0.0 0.0 0.00 0.08 0.00 97 1013.2
20260510093016 10 191 0.0 0.0 0.00 0.08 0.00 97 1013.0
20260510092513 10 191 0.0 0.0 0.00 0.08 0.00 97 1013.0
20260510092013 10 191 0.0 0.0 0.00 0.08 0.00 97 1013.2
20260510091513 10 191 0.0 0.0 0.00 0.08 0.00 97 1013.1
20260510091015 10 190 0.0 0.0 0.00 0.08 0.00 97 1013.1
20260510090513 10 189 0.0 0.0 0.00 0.08 0.00 97 1013.3
20260510090012 10 189 0.0 0.0 0.00 0.08 0.00 97 1013.4
20260510085512 10 191 0.0 0.0 0.00 0.08 0.00 97 1013.4
20260510085012 10 191 0.0 0.0 0.00 0.08 0.00 97 1013.4
20260510084513 10 191 0.0 1.6 0.00 0.08 0.00 97 1013.2
20260510084016 10 206 0.0 0.0 0.00 0.08 0.00 97 1013.5
20260510083516 10 206 0.0 0.0 0.00 0.08 0.00 97 1013.3
20260510083012 9 193 0.0 0.0 0.00 0.08 0.00 97 1013.4
20260510082514 9 193 0.0 1.6 0.00 0.08 0.00 97 1013.2
20260510082015 9 179 0.0 1.6 0.00 0.08 0.00 97 1013.3
20260510081513 9 184 0.0 3.2 0.00 0.08 0.00 97 1013.5
20260510081010 9 204 0.0 3.2 0.00 0.08 0.00 97 1013.1
20260510080512 9 181 0.0 0.0 0.00 0.08 0.00 97 1013.0
20260510080010 9 181 0.0 0.0 0.00 0.08 0.00 97 1012.6
20260510075514 9 181 0.0 0.0 0.00 0.08 0.00 97 1012.6
20260510075008 9 181 0.0 0.0 0.00 0.08 0.00 97 1012.7
20260510074509 9 181 0.0 0.0 0.00 0.08 0.00 97 1012.6
20260510074008 10 181 0.0 0.0 0.00 0.08 0.00 97 1012.6
20260510073515 10 181 0.0 0.0 0.00 0.08 0.00 97 1012.7
20260510073007 10 181 0.0 0.0 0.00 0.08 0.00 97 1012.6
20260510072507 10 181 0.0 0.0 0.00 0.08 0.00 97 1012.5
20260510072009 10 181 0.0 0.0 0.00 0.08 0.00 97 1012.4
20260510071507 10 181 0.0 1.6 0.00 0.08 0.00 97 1012.5
20260510071009 10 181 0.0 1.6 0.00 0.08 0.00 97 1012.6
20260510070506 10 200 0.0 1.6 0.00 0.08 0.00 97 1012.6
20260510070009 10 180 0.0 1.6 0.00 0.08 0.00 97 1012.6
20260510065506 10 197 0.0 0.0 0.00 0.08 0.00 97 1012.7
20260510065008 10 186 0.0 0.0 0.00 0.08 0.00 97 1012.5
20260510064506 10 195 0.0 0.0 0.00 0.08 0.00 97 1012.3
20260510064006 10 203 0.0 0.0 0.00 0.08 0.00 97 1012.4
20260510063506 10 203 0.0 0.0 0.00 0.08 0.00 97 1012.4
20260510063005 10 203 0.0 0.0 0.00 0.08 0.00 97 1012.1
20260510062504 10 203 0.0 0.0 0.00 0.08 0.00 97 1012.1
20260510062004 10 203 0.0 0.0 0.00 0.08 0.00 97 1012.1
20260510061505 10 203 0.0 0.0 0.00 0.08 0.00 97 1012.1
20260510061009 10 203 0.0 0.0 0.00 0.08 0.00 97 1012.1
20260510060503 10 203 0.0 0.0 0.00 0.08 0.00 97 1012.1
20260510060005 10 203 0.0 0.0 0.00 0.08 0.00 97 1012.3
20260510055503 10 203 0.0 0.0 0.00 0.08 0.00 97 1012.3
20260510055002 10 203 0.0 0.0 0.00 0.08 0.00 97 1012.3
20260510054600 10 203 0.0 0.0 0.00 0.08 0.00 97 1012.4
20260510054100 10 203 0.0 0.0 0.00 0.08 0.00 97 1012.4
20260510053557 10 203 0.0 0.0 0.00 0.08 0.00 97 1012.4
20260510053058 9 203 0.0 0.0 0.00 0.08 0.00 97 1012.5
20260510052559 9 203 0.0 0.0 0.00 0.08 0.00 97 1012.5
20260510052055 9 203 0.0 0.0 0.00 0.08 0.00 97 1012.5
20260510051602 9 203 0.0 0.0 0.00 0.08 0.00 96 1012.4
20260510051054 9 203 0.0 0.0 0.00 0.08 0.00 97 1012.5
20260510050554 9 203 0.0 0.0 0.00 0.08 0.00 96 1012.6
20260510050054 9 203 0.0 0.0 0.00 0.08 0.00 96 1012.7
20260510045553 9 203 0.0 0.0 0.00 0.08 0.00 96 1012.6
20260510045053 9 203 0.0 0.0 0.00 0.08 0.00 96 1012.7
20260510044556 9 203 0.0 0.0 0.00 0.08 0.00 96 1012.8
20260510044053 9 203 0.0 0.0 0.00 0.08 0.00 96 1012.8
20260510043553 9 203 0.0 0.0 0.00 0.08 0.00 96 1012.7
20260510043100 9 203 0.0 0.0 0.00 0.08 0.00 96 1012.7
20260510042551 9 203 0.0 0.0 0.00 0.08 0.00 96 1012.8
20260510042050 9 203 0.0 0.0 0.00 0.08 0.00 96 1012.8
20260510041607 9 203 0.0 0.0 0.00 0.08 0.00 96 1012.8
20260510041057 9 203 0.0 0.0 0.00 0.08 0.00 96 1012.9
20260510040550 9 203 0.0 0.0 0.00 0.08 0.00 96 1012.9
20260510040049 9 203 0.0 0.0 0.00 0.08 0.00 96 1012.8
20260510035548 9 203 0.0 0.0 0.00 0.08 0.08 96 1012.7
20260510035048 9 203 0.0 0.0 0.00 0.08 0.08 96 1012.8
20260510034550 9 203 0.0 0.0 0.00 0.08 0.08 96 1012.7
20260510034051 9 203 0.0 0.0 0.00 0.08 0.08 96 1012.7
20260510033548 9 203 0.0 0.0 0.00 0.08 0.08 96 1012.7
20260510033048 10 203 0.0 0.0 0.00 0.08 0.08 96 1012.7
20260510032550 10 203 0.0 0.0 0.00 0.08 0.08 96 1012.7
20260510032048 10 203 0.0 0.0 0.00 0.08 0.08 96 1012.6
20260510031545 10 203 0.0 0.0 0.00 0.08 0.08 96 1012.4
20260510031045 10 203 0.0 0.0 0.00 0.08 0.08 96 1012.5
20260510030548 10 203 0.0 0.0 0.00 0.08 0.08 96 1012.5
20260510030049 10 203 0.0 0.0 0.00 0.08 0.08 96 1012.5
20260510025543 10 203 0.0 0.0 0.00 0.08 0.08 96 1012.5
20260510025045 10 203 0.0 0.0 0.00 0.08 0.08 96 1012.6
20260510024553 10 203 0.0 0.0 0.00 0.08 0.08 96 1012.5
20260510024048 10 203 0.0 0.0 0.00 0.08 0.08 96 1012.5
20260510023543 10 203 0.0 0.0 0.00 0.08 0.08 96 1012.4
20260510023043 10 203 0.0 0.0 0.00 0.08 0.08 96 1012.3
20260510022546 10 203 0.0 0.0 0.00 0.08 0.08 96 1012.3
20260510022042 10 203 0.0 0.0 0.00 0.08 0.08 96 1012.4
20260510021542 10 203 0.0 0.0 0.00 0.08 0.08 96 1012.3
20260510021041 10 203 0.0 0.0 0.00 0.08 0.08 95 1012.4
20260510020541 10 203 0.0 0.0 0.00 0.08 0.08 95 1012.3
20260510020048 10 203 0.0 0.0 0.00 0.08 0.08 95 1012.2
20260510015541 10 203 0.0 0.0 0.00 0.08 0.08 95 1012.3
20260510015039 10 203 0.0 0.0 0.00 0.08 0.08 95 1012.3
20260510014541 10 203 0.0 0.0 0.00 0.08 0.08 95 1012.2
20260510014040 10 203 0.0 0.0 0.00 0.08 0.08 95 1012.3
20260510013540 10 203 0.0 0.0 0.00 0.08 0.08 95 1012.3
20260510013046 10 203 0.0 0.0 0.00 0.08 0.08 95 1012.4
20260510012543 10 203 0.0 0.0 0.00 0.08 0.08 95 1012.3
20260510012038 10 203 0.0 0.0 0.00 0.08 0.08 95 1012.3
20260510011539 10 203 0.0 0.0 0.00 0.08 0.08 95 1012.1
20260510011037 10 203 0.0 0.0 0.00 0.08 0.08 95 1012.0
20260510010536 10 203 0.0 0.0 0.00 0.08 0.08 95 1012.1
20260510010055 10 203 0.0 0.0 0.00 0.08 0.08 95 1012.0
20260510005537 10 203 0.0 0.0 0.00 0.08 0.08 94 1012.0
20260510005036 11 203 0.0 0.0 0.00 0.08 0.08 94 1011.9
20260510004536 11 203 0.0 0.0 0.00 0.08 0.08 94 1011.9
20260510004035 11 203 0.0 0.0 0.00 0.08 0.08 94 1012.0
20260510003535 11 203 0.0 0.0 0.00 0.08 0.08 94 1011.8
20260510003036 11 203 0.0 0.0 0.00 0.08 0.08 94 1011.8
20260510002536 11 203 0.0 0.0 0.00 0.08 0.08 94 1011.6
20260510002034 11 203 0.0 0.0 0.00 0.08 0.08 93 1011.6
20260510001535 11 203 0.0 0.0 0.00 0.08 0.08 93 1011.7
20260510001037 11 203 0.0 0.0 0.00 0.08 0.08 93 1011.7
20260510000538 11 202 0.0 0.0 0.00 0.08 0.08 92 1011.7
20260510000038 11 203 0.0 0.0 0.00 0.08 0.08 92 1011.7
20260509235535 12 203 0.0 0.0 0.00 0.08 0.08 92 1011.7
20260509235034 12 203 0.0 0.0 0.00 0.08 0.08 92 1011.8
20260509234550 12 201 0.0 0.0 0.00 0.08 0.08 91 1011.9
20260509234037 12 201 0.0 0.0 0.00 0.08 0.08 91 1011.8
20260509233538 12 200 0.0 0.0 0.00 0.08 0.08 91 1011.9
20260509233035 12 200 0.0 0.0 0.00 0.08 0.08 90 1011.8
20260509232538 12 200 0.0 0.0 0.00 0.08 0.08 90 1011.8
20260509232034 12 200 0.0 0.0 0.00 0.08 0.08 90 1011.8
20260509231535 12 198 0.0 0.0 0.00 0.08 0.08 90 1011.8
20260509231032 13 194 0.0 0.0 0.00 0.08 0.08 89 1011.8
20260509230537 13 194 0.0 0.0 0.00 0.08 0.08 89 1011.8
20260509230033 13 194 0.0 0.0 0.00 0.08 0.08 88 1011.8
20260509225533 13 195 0.0 0.0 0.00 0.08 0.08 88 1011.8
20260509225034 13 192 0.0 0.0 0.00 0.08 0.08 88 1011.7
20260509224532 13 192 0.0 0.0 0.00 0.08 0.08 88 1011.8
20260509224032 13 182 0.0 0.0 0.00 0.08 0.08 91 1011.9
20260509223533 13 178 0.0 3.2 0.00 0.08 0.08 89 1011.9
20260509223032 13 178 0.0 3.2 0.00 0.08 0.08 90 1011.8
20260509222531 13 197 0.0 3.2 0.00 0.08 0.08 89 1011.8
20260509222035 13 181 0.0 3.2 0.00 0.08 0.08 91 1011.5
20260509221551 13 146 0.0 3.2 0.00 0.08 0.08 92 1011.7
20260509221031 13 188 0.0 1.6 0.00 0.08 0.08 91 1011.6
20260509220529 13 200 0.0 1.6 0.00 0.08 0.08 91 1011.7
20260509220032 13 177 0.0 1.6 0.00 0.08 0.08 91 1011.7
20260509215530 13 203 0.0 3.2 0.00 0.08 0.08 91 1011.7
20260509215030 13 168 0.0 3.2 0.00 0.08 0.08 91 1011.8
20260509214530 13 187 0.0 0.0 0.00 0.08 0.08 92 1011.8
20260509214030 13 208 0.0 0.0 0.00 0.08 0.08 92 1011.7
20260509213529 13 203 0.0 0.0 0.00 0.08 0.08 91 1011.9
20260509213030 13 190 0.0 0.0 0.00 0.08 0.08 90 1011.8
20260509212532 13 198 0.0 1.6 0.00 0.08 0.08 91 1011.8
20260509212028 13 207 0.0 1.6 0.00 0.08 0.08 92 1011.8
20260509211528 13 193 0.0 0.0 0.00 0.08 0.08 93 1011.9
20260509211028 13 192 0.0 0.0 0.00 0.08 0.08 93 1011.8
20260509210529 13 200 0.0 0.0 0.00 0.08 0.08 94 1011.9
20260509210028 13 192 0.0 0.0 0.00 0.08 0.08 93 1011.9
20260509205528 13 191 0.0 0.0 0.00 0.08 0.08 93 1011.8
20260509205028 12 191 0.0 0.0 0.00 0.08 0.08 93 1011.8
20260509204528 12 191 0.0 0.0 0.00 0.08 0.08 93 1011.7
20260509204028 12 195 0.0 0.0 0.00 0.08 0.08 93 1011.8
20260509203526 12 195 0.0 0.0 0.00 0.08 0.08 93 1011.8
20260509203030 12 195 0.0 0.0 0.00 0.08 0.08 93 1011.7
20260509202527 12 197 0.0 1.6 0.00 0.08 0.08 92 1011.7
20260509202027 12 179 0.0 3.2 0.00 0.08 0.08 92 1011.7
20260509201527 12 200 0.0 0.0 0.00 0.08 0.08 92 1011.7
20260509201032 12 196 0.0 0.0 0.00 0.08 0.08 92 1011.7
20260509200528 12 197 0.0 1.6 0.00 0.08 0.08 92 1011.9
20260509200024 12 172 0.0 1.6 0.00 0.08 0.08 92 1012.0
20260509195524 12 181 0.0 1.6 0.00 0.08 0.08 91 1012.0
20260509195026 12 181 0.0 3.2 0.00 0.08 0.08 91 1012.0
20260509194523 12 175 0.0 0.0 0.00 0.08 0.08 91 1012.1
20260509194023 12 202 0.0 1.6 0.00 0.08 0.08 91 1012.1
20260509193526 12 172 0.0 1.6 0.00 0.08 0.08 91 1012.4
20260509193023 12 184 0.0 1.6 0.00 0.08 0.08 92 1012.6
20260509192522 12 179 0.0 1.6 0.00 0.08 0.08 91 1012.4
20260509192036 13 219 0.0 3.2 0.00 0.08 0.08 91 1012.5
20260509191522 13 190 0.0 3.2 0.00 0.08 0.08 91 1012.7
20260509191020 13 175 0.0 3.2 0.00 0.08 0.08 91 1012.7
20260509190523 13 187 0.0 3.2 0.00 0.08 0.08 93 1012.7
20260509190035 13 199 0.0 0.0 0.00 0.08 0.08 92 1012.6
20260509185523 13 199 0.0 0.0 0.00 0.08 0.08 92 1012.5
20260509185020 13 198 0.0 0.0 0.00 0.08 0.08 92 1012.7
20260509184528 13 181 0.0 0.0 0.00 0.08 0.08 92 1012.7
20260509184019 13 180 0.0 0.0 0.00 0.08 0.08 91 1012.8
20260509183519 13 180 0.0 1.6 0.00 0.08 0.08 91 1012.9
20260509183026 13 181 0.0 1.6 0.00 0.08 0.08 90 1012.9
20260509182519 13 193 0.0 0.0 0.00 0.08 0.08 89 1012.9
20260509182019 13 199 0.0 0.0 0.00 0.08 0.08 89 1012.9
20260509181517 13 174 0.0 3.2 0.00 0.08 0.08 88 1013.0
20260509181021 13 183 0.0 3.2 0.00 0.08 0.08 87 1013.0
20260509180517 14 184 0.0 3.2 0.03 0.08 0.08 88 1012.9
20260509180016 14 200 0.0 3.2 0.03 0.08 0.08 87 1012.9
20260509175516 14 192 0.0 1.6 0.03 0.08 0.08 87 1012.9
20260509175018 14 196 0.0 1.6 0.05 0.08 0.08 87 1012.7
20260509174522 14 196 0.0 1.6 0.05 0.08 0.08 86 1012.7
20260509174016 14 198 0.0 1.6 0.05 0.08 0.08 85 1012.7
20260509173515 14 193 0.0 0.0 0.08 0.08 0.08 85 1012.6
20260509173016 14 196 0.0 0.0 0.08 0.08 0.08 86 1012.7
20260509172515 14 182 0.0 1.6 0.08 0.08 0.08 86 1012.9
20260509172014 14 181 0.0 1.6 0.08 0.08 0.08 85 1012.9
20260509171514 14 190 0.0 0.0 0.08 0.08 0.08 85 1012.9
20260509171013 14 192 0.0 1.6 0.08 0.08 0.08 85 1012.9
20260509170513 14 200 0.0 1.6 0.05 0.05 0.05 84 1012.9
20260509170025 14 195 0.0 4.8 0.05 0.05 0.05 83 1012.9
20260509165511 15 190 0.0 4.8 0.03 0.03 0.03 82 1012.9
20260509165011 15 193 0.0 3.2 0.03 0.03 0.03 82 1013.1
20260509164512 15 192 0.0 4.8 0.03 0.03 0.03 81 1012.9
20260509164016 16 179 0.0 4.8 0.03 0.03 0.03 80 1012.9
20260509163511 16 186 0.0 3.2 0.00 0.00 0.00 78 1012.9
20260509163012 16 188 0.0 4.8 0.00 0.00 0.00 76 1012.9
20260509162512 17 198 0.0 0.0 0.00 0.00 0.00 76 1012.9
20260509162012 17 196 0.0 3.2 0.00 0.00 0.00 75 1013.1
20260509161510 17 195 0.0 3.2 0.00 0.00 0.00 71 1013.2
20260509161010 17 186 0.0 4.8 0.00 0.00 0.00 69 1013.1
20260509160508 17 186 0.0 4.8 0.00 0.00 0.00 69 1013.1
20260509160016 17 200 0.0 4.8 0.00 0.00 0.00 71 1013.2
20260509155507 17 194 0.0 4.8 0.00 0.00 0.00 69 1013.3
20260509155011 17 194 0.0 4.8 0.00 0.00 0.00 67 1013.4
20260509154508 17 182 0.0 3.2 0.00 0.00 0.00 67 1013.5
20260509154008 17 187 0.0 6.4 0.00 0.00 0.00 67 1013.3
20260509153508 17 176 0.0 6.4 0.00 0.00 0.00 67 1013.5
20260509153007 17 205 0.0 4.8 0.00 0.00 0.00 68 1013.6
20260509152506 17 224 0.0 4.8 0.00 0.00 0.00 70 1013.4
20260509152005 17 189 0.0 4.8 0.00 0.00 0.00 71 1013.5
20260509151503 17 169 0.0 4.8 0.00 0.00 0.00 71 1013.5
20260509151003 17 168 0.0 6.4 0.00 0.00 0.00 72 1013.5
20260509150502 17 198 0.0 3.2 0.00 0.00 0.00 73 1013.5
20260509150002 16 193 0.0 1.6 0.00 0.00 0.00 74 1013.3
20260509145502 16 198 0.0 4.8 0.00 0.00 0.00 75 1013.3
20260509145101 16 188 0.0 4.8 0.00 0.00 0.00 73 1013.2
20260509144601 16 219 0.0 3.2 0.00 0.00 0.00 74 1013.3
20260509144059 16 196 0.0 1.6 0.00 0.00 0.00 75 1013.3
20260509143559 16 189 0.0 1.6 0.00 0.00 0.00 75 1013.4
20260509143059 16 195 0.0 0.0 0.00 0.00 0.00 77 1013.3